Regional Weather Roundup
Issued by NWS Jackson, KY

Home | Current Version | Previous Version | Text Only | Print | Product List | Glossary Off
Versions: 1 2 3 4 5 6 7 8 9 10 11 12 13 14 15 16 17 18 19 20 21 22 23 24 25 26 27 28 29 30 31 32 33 34 35 36 37 38 39 40 41 42 43 44 45 46 47 48 49 50

000
ASUS43 KJKL 272119
RWRJKL

EAST KENTUCKY HOURLY WEATHER ROUNDUP
NATIONAL WEATHER SERVICE JACKSON KY
500 PM EDT WED AUG 27 2014

NOTE: "FAIR" INDICATES FEW OR NO CLOUDS BELOW 12,000 FEET WITH
NO SIGNIFICANT WEATHER AND/OR OBSTRUCTIONS TO VISIBILITY.

* THESE REPORTS ARE NOT UNDER NWS QUALITY CONTROL AND MAY NOT
  REPORT WEATHER SUCH AS PRECIPITATION AND FOG.

KYZ079-080-083-085-087-088-110-112-115-119-120-272200
...EASTERN KENTUCKY...

CITY           SKY/WX    TMP DP  RH WIND       PRES   REMARKS
JACKSON        MOSUNNY   84  68  58 CALM      30.09F
LONDON         SUNNY     86  66  51 NE7       30.09F
SOMERSET*      PTSUNNY   84  64  51 E5        30.08F
MONTICELLO*    MOSUNNY   88  71  56 N6        30.09F HX  93
WILLIAMSBURG*  SUNNY     86  64  48 E5        30.08
MIDDLESBORO*   SUNNY     87  62  42 CALM      30.08S
HARLAN APT*    CLEAR     86  54  32 MISG      30.10S
HAZARD APT*    CLEAR     84  66  54 CALM      30.09F
BLACK MTN*       N/A     77  57  50 NW1         N/A
PIKEVILLE APT* SUNNY     82  68  61 W5        30.09F
BIG SANDY*     CLEAR     84  69  60 CALM      30.08F
MOREHEAD APT*  PTCLDY    84  70  61 S8        30.07F
ASHLAND*       PTSUNNY   88  70  55 CALM      30.00F HX  92
$$

KYZ035-036-041-042-044-050-067-078-099-272200
...CENTRAL KENTUCKY...

CITY           SKY/WX    TMP DP  RH WIND       PRES   REMARKS
MT STERLING*   SUNNY     88  72  58 SW6       30.07F HX  94
FLEMING/MASON* SUNNY     86  72  61 SW5       30.05F HX  92
DANVILLE*      SUNNY     88  70  55 CALM      30.07F HX  92
RICHMOND*      SUNNY     88  68  51 SE3       30.07F HX  91
LEXINGTON      MOSUNNY   91  69  48 CALM      30.06F HX  96
FRANKFORT      MOSUNNY   89  72  56 VRB5      30.03F HX  96
$$

KYZ091>093-OHZ055-061-077-WVZ005-015-034-035-042-272200
...SOUTHERN OHIO/WEST VIRGINIA...

CITY           SKY/WX    TMP DP  RH WIND       PRES   REMARKS
COVINGTON      MOSUNNY   90  69  50 W10       30.03F HX  94
COLUMBUS       MOSUNNY   84  73  70 W8        30.03R HX  91
DAYTON         PTSUNNY   87  72  60 N10       30.07S HX  93
WILMINGTON     SUNNY     87  72  60 NW8       30.04F HX  93
HUNTINGTON     SUNNY     85  69  58 S5        30.04F
CHARLESTON     MOSUNNY   88  67  49 CALM      30.04F HX  91
PINEVILLE*     SUNNY     86  71  60 MISG      30.14S HX  92
BECKLEY        SUNNY     82  60  47 N10       30.13F
BLUEFIELD      SUNNY     83  57  41 N5        30.15F
$$

VAZ002-007-008-TNZ017-027-036-066-071-272200
...SOUTHWEST VIRGINIA/EAST TENNESSEE...

CITY           SKY/WX    TMP DP  RH WIND       PRES   REMARKS
WISE*          SUNNY     81  50  34 N5        30.17S
JONESVILLE*      N/A     86  61  42 CALM      30.10F
ABINGDON*      SUNNY     83  57  40 NW5       30.11S
BRISTOL        MOSUNNY   86  56  35 N6        30.08F
OAK RIDGE      SUNNY     88  58  36 E6        30.08F
CROSSVILLE     SUNNY     86  61  42 N5        30.12F
NASHVILLE      PTSUNNY   91  69  48 E9        30.05F HX  96
$$

...KEY TO REMARKS...
VSB - VISIBILITY IN MILES
WCI - WIND CHILL INDEX
HX  - HEAT INDEX

$$



USA.gov is the U.S. government's official web portal to all federal, state and local government web resources and services.